Content
SEND FEEDBACK

Daily
Averages
Monthly
Summary
United States of America

EARTH CITY, MISSOURI


Home > North America > United States > Missouri
Elevation: 476 feet     Latitude: 38 46N     Longitude: 090 30W

WEATHER
 
SELECT A DAY
Number of Records: 206,484;   Date Range: 1/1/95 - 10/19/14
 
SHARE

PRINT THIS DATA

[ ← Previous Day ]
WEATHER ALMANAC - JANUARY 14, 2013
[ Next Day → ]
[ °C ]   °F
Weather ElementAverageHighLow
Temperature21.7 °F26.1 °F (2:51 pm)18 °F (3:51 am)
Dewpoint12.8 °F15.1 °F (4:51 pm)10 °F (7:51 am)
Humidity69.2 %78 % (3:51 am)58 % (12:51 pm)
Barometer30.48 in30.54 in (9:51 am)30.45 in (1:51 am)
Wind Speed5.1 mph8.1 mph (10:51 am)
Weather ElementAverage
Visibility10 mi
Wind DirectionSSE (166.5 °)

Weather ElementTotal
Precipitation---
Heating Degree Days43 (Base 65)
Averaged from 23 records on January 14, 2013
WEATHER CONDITIONS BREAKOUT
WIND DIRECTION BREAKOUT
WEATHER BY HOUR - JANUARY 14, 2013
[ °C ]   °F
Local TimeTemperatureDewpointHumidityBarometerVisibilityWind DirectionWind SpeedGust SpeedPrecipitationEventsConditions
1:51 AM19.0 °F12.0 °F74 %30.45 in10.0 miNW (310°)5.8 mphClear
2:51 AM19.0 °F12.0 °F74 %30.48 in10.0 miWNW (300°)4.6 mphClear
3:51 AM18.0 °F12.0 °F78 %30.46 in10.0 miNNW (330°)4.6 mphClear
4:51 AM18.0 °F12.0 °F78 %30.46 in10.0 miNW (320°)4.6 mphClear
5:51 AM18.0 °F12.0 °F78 %30.47 in10.0 miNNW (330°)6.9 mphClear
6:51 AM18.0 °F10.9 °F74 %30.46 in10.0 miNorth (360°)6.9 mphClear
7:51 AM19.0 °F10.0 °F68 %30.47 in10.0 miNorth (350°)6.9 mphScattered Clouds
8:51 AM21.0 °F10.9 °F65 %30.52 in10.0 miNNW (340°)5.8 mphScattered Clouds
9:51 AM21.9 °F10.0 °F60 %30.54 in10.0 miNNE (20°)6.9 mphMostly Cloudy
10:51 AM23.0 °F10.9 °F60 %30.52 in10.0 miNorth (10°)8.1 mphOvercast
11:51 AM23.0 °F10.9 °F60 %30.51 in10.0 miVariable4.6 mphMostly Cloudy
12:51 PM25.0 °F12.0 °F58 %30.53 in10.0 miNW (310°)4.6 mphMostly Cloudy
1:51 PM25.0 °F12.0 °F58 %30.51 in10.0 miCalmMostly Cloudy
2:51 PM26.1 °F12.9 °F58 %30.50 in10.0 miVariable4.6 mphScattered Clouds
3:51 PM26.1 °F12.9 °F58 %30.49 in10.0 miNNE (30°)4.6 mphScattered Clouds
4:51 PM24.1 °F15.1 °F69 %30.49 in10.0 miNorth (350°)5.8 mphPartly Cloudy
5:51 PM23.0 °F15.1 °F72 %30.48 in10.0 miNorth (360°)5.8 mphClear
6:51 PM23.0 °F15.1 °F72 %30.48 in10.0 miNorth (10°)5.8 mphClear
7:51 PM23.0 °F15.1 °F72 %30.46 in10.0 miNNE (30°)4.6 mphClear
8:51 PM21.9 °F15.1 °F75 %30.47 in10.0 miNorth (10°)3.5 mphPartly Cloudy
9:51 PM21.9 °F15.1 °F75 %30.46 in10.0 miNNE (30°)4.6 mphPartly Cloudy
10:51 PM21.0 °F15.1 °F78 %30.46 in10.0 miNorth (10°)4.6 mphClear
11:51 PM21.0 °F15.1 °F78 %30.48 in10.0 miNNE (20°)3.5 mphPartly Cloudy
Hourly data recorded from KSTL, located miles away from Earth City, Missouri







STORIES FROM OUR PARTNERS